Station MBET2 - 8773767 - Matagorda Bay Entrance Channel, TX Image indicating link to RSS feed of recent meteorological observations for station MBET2


Conditions at MBET2 as of
(9:54 pm CDT on 04/18/2024)
0254 GMT on 04/19/2024:
     

Click on the graph icon in the table below to see a time series plot of the last five days of that observation.

5-day plot - Wind Direction Wind Direction (WDIR):SSW ( 200 deg true )
5-day plot - Wind Speed Wind Speed (WSPD): 13.0 kts
5-day plot - Wind Gust Wind Gust (GST): 15.0 kts
5-day plot - Atmospheric Pressure Atmospheric Pressure (PRES):29.91 in
5-day plot - Air Temperature Air Temperature (ATMP): 74.7 °F
5-day plot - Water Temperature Water Temperature (WTMP): 75.2 °F
5-day plot - Wind Speed at 10 Meters Wind Speed at 10 meters (WSPD10M): 13.6 kts
5-day plot - Wind Speed at 20 Meters Wind Speed at 20 meters (WSPD20M): 13.6 kts
5-day plot -  Wind Speed, Wind Gust and Atmospheric Pressure Combined plot of Wind Speed, Gust, and Air Pressure
NOS Water Level Observation Network Water Level
Previous observations
TIME
(CDT)
5-day plot - Wind Direction
WDIR
 
5-day plot - Wind Speed
WSPD
kts
5-day plot - Wind Gust
GST
kts
5-day plot - Wave Height
WVHT
ft
5-day plot - Dominant Wave Period
DPD
sec
5-day plot - Average Wave Period
APD
sec
5-day plot - Mean Wave Direction
MWD
 
5-day plot - Atmospheric Pressure
PRES
in
5-day plot - Pressure Tendency
PTDY
in
5-day plot - Air Temperature
ATMP
°F
5-day plot - Water Temperature
WTMP
°F
5-day plot - Dew Point
DEWP
°F
5-day plot - Salinity
SAL
psu
5-day plot - Visibility
VIS
nmi
5-day plot - Tide (above MLLW)
TIDE
ft
2024-04-18 09:48 pmSSW 11.1 13.0----29.92- 74.7 75.2----
2024-04-18 09:42 pm S 11.1 13.0----29.91- 74.7 75.2----
2024-04-18 09:36 pm S 11.1 15.0----29.91- 74.7 75.2----
2024-04-18 09:30 pm S 12.0 14.0----29.90- 74.5 75.2----
2024-04-18 09:24 pm S 13.0 15.0----29.90- 74.5 75.2----
2024-04-18 09:18 pm S 12.0 15.0----29.89- 74.3 75.2----
2024-04-18 09:12 pm S 13.0 15.0----29.89- 74.3 75.0----
2024-04-18 09:06 pm S 14.0 15.9----29.88- 74.3 75.0----
2024-04-18 09:00 pm S 14.0 18.1----29.88+0.02 74.3 75.0----
2024-04-18 08:54 pm S 15.9 18.1----29.88- 74.3 75.0----
2024-04-18 08:48 pm S 15.9 18.1----29.88- 74.3 75.0----
2024-04-18 08:42 pm S 15.9 17.1----29.87- 74.3 75.2----
2024-04-18 08:36 pm S 15.0 18.1----29.86- 74.3 75.4----
2024-04-18 08:30 pm S 15.9 19.0----29.86- 74.1 75.4----
2024-04-18 08:24 pm S 15.0 17.1----29.87- 74.1 75.4----
2024-04-18 08:18 pm S 14.0 15.9----29.87- 74.3 75.4----
2024-04-18 08:12 pm S 14.0 15.9----29.87- 74.3 75.4----
2024-04-18 08:06 pm S 13.0 15.0----29.87- 74.3 75.4----
2024-04-18 08:00 pm S 13.0 15.0----29.87+0.01 74.3 75.6----
2024-04-18 07:54 pmSSE 13.0 15.0----29.87- 74.3 75.7----
2024-04-18 07:48 pm S 13.0 14.0----29.87- 74.3 75.7----
2024-04-18 07:42 pmSSE 13.0 14.0----29.87- 74.3 75.7----
2024-04-18 07:36 pmSSE 13.0 15.0----29.87- 74.3 75.7----
2024-04-18 07:30 pmSSE 14.0 15.9----29.87- 74.3 75.7----
2024-04-18 07:24 pmSSE 15.0 15.9----29.86- 74.1 75.7----
2024-04-18 07:18 pmSSE 14.0 17.1----29.86- 74.3 75.7----
2024-04-18 07:12 pmSSE 15.0 17.1----29.87- 74.3 75.6----
2024-04-18 07:06 pmSSE 13.0 15.0----29.87- 74.3 75.6----
2024-04-18 07:00 pmSSE 13.0 15.0----29.87+0.00 74.3 75.6----
2024-04-18 06:54 pmSSE 13.0 15.0----29.87- 74.3 75.6----
2024-04-18 06:48 pmSSE 14.0 15.0----29.87- 74.5 75.6----
2024-04-18 06:42 pmSSE 13.0 15.0----29.87- 74.5 75.4----
2024-04-18 06:36 pmSSE 13.0 15.0----29.86- 74.5 75.4----
2024-04-18 06:30 pmSSE 13.0 14.0----29.87- 74.5 75.4----
2024-04-18 06:24 pmSSE 13.0 15.0----29.86- 74.5 75.4----
2024-04-18 06:18 pmSSE 13.0 15.0----29.86- 74.5 75.2----
2024-04-18 06:00 pmSSE 13.0 15.0----29.86-0.03 74.5 74.8----
2024-04-18 05:54 pmSSE 13.0 15.0----29.86- 74.5 74.5----
2024-04-18 05:48 pmSSE 13.0 15.0----29.86- 74.5 74.5----
2024-04-18 05:42 pm SE 13.0 14.0----29.86- 74.5 74.3----
2024-04-18 05:36 pm SE 13.0 14.0----29.86- 74.5 74.1----
2024-04-18 05:30 pm SE 12.0 14.0----29.86- 74.5 74.1----
2024-04-18 05:24 pm SE 12.0 13.0----29.86- 74.5 73.9----
2024-04-18 05:18 pm SE 11.1 13.0----29.86- 74.3 73.9----
2024-04-18 05:12 pm SE 11.1 13.0----29.86- 74.5 73.9----
2024-04-18 05:06 pmSSE 11.1 14.0----29.86- 74.5 74.1----
2024-04-18 05:00 pm SE 12.0 13.0----29.86-0.04- 74.1----
2024-04-18 04:54 pmSSE 11.1 15.0----29.86-- 74.1----
2024-04-18 04:48 pmSSE 12.0 15.0----29.86- 74.3 74.1----
2024-04-18 04:42 pmSSE 12.0 14.0----29.86- 74.5 74.1----
2024-04-18 04:36 pmSSE 12.0 13.0----29.87- 74.5 74.1----
2024-04-18 04:30 pmSSE 11.1 12.0----29.87- 74.7 74.3----
2024-04-18 04:24 pmSSE 11.1 13.0----29.87- 74.5 74.3----
2024-04-18 04:18 pmSSE 11.1 12.0----29.87- 74.5 74.3----
2024-04-18 04:12 pmSSE 12.0 13.0----29.88- 74.5 74.5----
2024-04-18 04:06 pmSSE 11.1 12.0----29.88- 74.5 74.5----
2024-04-18 04:00 pmSSE 12.0 14.0----29.87-0.04 74.7 74.5----
2024-04-18 03:54 pmSSE 12.0 14.0----29.87- 74.5 74.7----
2024-04-18 03:48 pmSSE 13.0 15.0----29.87- 74.5 74.7----
2024-04-18 03:42 pmSSE 13.0 15.0----29.87- 74.5 74.7----
2024-04-18 03:36 pmSSE 13.0 14.0----29.88- 74.3 74.7----
2024-04-18 03:30 pmSSE 13.0 15.0----29.88- 74.3 74.8----
2024-04-18 03:24 pmSSE 13.0 15.0----29.88- 74.3 74.8----
2024-04-18 03:18 pmSSE 13.0 15.0----29.88- 74.3 74.8----
2024-04-18 03:12 pmSSE 13.0 15.0----29.88- 74.1 74.8----
2024-04-18 03:06 pmSSE 13.0 15.0----29.88- 74.3 74.8----
2024-04-18 03:00 pmSSE 12.0 14.0----29.88-0.03 74.3 75.0----
2024-04-18 02:54 pmSSE 12.0 13.0----29.88- 74.3 75.0----
2024-04-18 02:48 pmSSE 11.1 13.0----29.89- 74.3 75.0----
2024-04-18 02:42 pmSSE 11.1 12.0----29.89- 74.5 75.0----
2024-04-18 02:36 pmSSE 11.1 13.0----29.89- 74.5 75.0----
2024-04-18 02:30 pmSSE 12.0 14.0----29.89- 74.3 74.8----
2024-04-18 02:24 pmSSE 12.0 14.0----29.89- 74.3 74.8----
2024-04-18 02:18 pmSSE 13.0 14.0----29.89- 74.3 74.8----
2024-04-18 02:12 pmSSE 13.0 14.0----29.89- 74.3 74.8----
2024-04-18 02:06 pmSSE 12.0 14.0----29.89- 74.3 74.8----
2024-04-18 02:00 pmSSE 12.0 14.0----29.90-0.03 74.5 74.8----
2024-04-18 01:54 pmSSE 12.0 13.0----29.90- 74.3 74.8----
2024-04-18 01:48 pmSSE 11.1 12.0----29.90- 74.3 74.7----
2024-04-18 01:42 pmSSE 12.0 13.0----29.90- 74.3 74.7----
2024-04-18 01:36 pmSSE 11.1 13.0----29.90- 74.5 74.8----
2024-04-18 01:30 pmSSE 12.0 13.0----29.91- 74.3 74.8----
2024-04-18 01:24 pmSSE 12.0 13.0----29.91- 74.3 74.8----
2024-04-18 01:18 pmSSE 12.0 13.0----29.91- 74.3 74.8----
2024-04-18 01:12 pmSSE 12.0 14.0----29.91- 74.3 74.8----
2024-04-18 01:06 pmSSE 13.0 14.0----29.91- 74.1 74.8----
2024-04-18 01:00 pm S 12.0 14.0----29.91+0.00 74.3 74.8----
2024-04-18 12:54 pm S 12.0 13.0----29.91- 74.3 74.8----
2024-04-18 12:48 pm S 12.0 13.0----29.91- 74.3 74.8----
2024-04-18 12:42 pm S 12.0 12.0----29.91- 74.3 74.8----
2024-04-18 12:36 pm S 12.0 13.0----29.91- 74.3 74.8----
2024-04-18 12:30 pm S 12.0 14.0----29.92- 74.3 74.8----
2024-04-18 12:24 pm S 12.0 14.0----29.92- 74.3 74.8----
2024-04-18 12:18 pm S 13.0 14.0----29.91- 74.3 74.8----
2024-04-18 12:12 pm S 13.0 15.0----29.91- 74.3 74.8----
2024-04-18 12:06 pm S 13.0 15.0----29.92- 74.3 74.8----
2024-04-18 12:00 pm S 14.0 15.9----29.92+0.00 74.3 75.0----
2024-04-18 11:54 am S 13.0 15.0----29.92- 74.3 75.0----
2024-04-18 11:48 am S 14.0 15.0----29.92- 74.3 75.0----
2024-04-18 11:42 amSSE 14.0 15.9----29.92- 74.3 75.0----
2024-04-18 11:36 am S 14.0 15.9----29.92- 74.3 75.0----
2024-04-18 11:30 amSSE 13.0 15.0----29.92- 74.5 75.0----
2024-04-18 11:24 am S 13.0 15.0----29.92- 74.5 75.2----
2024-04-18 11:18 am S 13.0 14.0----29.93- 74.5 75.2----
2024-04-18 11:12 am S 12.0 13.0----29.93- 74.5 75.0----
2024-04-18 11:06 am S 12.0 13.0----29.93- 74.5 75.0----
2024-04-18 11:00 am S 12.0 13.0----29.93+0.04 74.5 75.0----
2024-04-18 10:54 am S 11.1 12.0----29.93- 74.7 75.2----
2024-04-18 10:48 am S 11.1 13.0----29.93- 74.7 75.2----
2024-04-18 10:42 am S 11.1 13.0----29.93- 74.7 75.2----
2024-04-18 10:36 am S 12.0 13.0----29.93- 74.7 75.2----
2024-04-18 10:30 am S 11.1 12.0----29.92- 74.7 75.2----
2024-04-18 10:24 am S 9.9 12.0----29.92- 74.5 75.2----
2024-04-18 10:18 am S 9.9 12.0----29.92- 74.3 75.2----
2024-04-18 10:12 am S 8.9 9.9----29.92- 74.5 75.2----
2024-04-18 10:06 am S 8.9 11.1----29.92- 74.3 75.2----
2024-04-18 10:00 amSSE 8.9 11.1----29.92+0.06 74.3 75.2----
2024-04-18 09:54 amSSE 8.9 9.9----29.91- 74.5 75.2----
2024-04-18 09:48 amSSE 8.9 11.1------------
2024-04-18 09:42 amSSE 8.9 9.9------------
2024-04-18 09:36 amSSE 8.9 9.9------------
2024-04-18 09:30 amSSE 8.9 11.1----29.91- 75.0 75.2----
2024-04-18 09:24 am S 8.9 9.9----29.91- 75.0 75.0----
2024-04-18 09:18 am S 8.0 9.9----29.91- 75.0 75.0----
2024-04-18 09:12 am S 8.0 8.9----29.91- 74.8 75.0----
2024-04-18 09:06 am S 8.0 8.9----29.91- 74.8 75.0----
2024-04-18 09:00 amSSW 7.0 9.9----29.91+0.05 74.8 75.0----
2024-04-18 08:54 amSSW 8.9 11.1----29.91- 74.8 75.0----
2024-04-18 08:48 amSSW 8.9 11.1----29.90- 74.8 74.8----
2024-04-18 08:42 amSSW 8.0 9.9----29.90- 75.0 74.8----
2024-04-18 08:36 amSSW 8.0 9.9----29.90- 74.8 74.8----
2024-04-18 08:30 amSSW 8.9 9.9----29.90- 75.0 74.8----
2024-04-18 08:24 amSSW 9.9 12.0----29.90- 75.0 74.8----
2024-04-18 08:18 amSSW 11.1 13.0----29.89- 75.0 74.8----
2024-04-18 08:12 amSSW 11.1 13.0----29.89- 75.0 74.8----
2024-04-18 08:06 amSSW 12.0 12.0----29.89- 75.0 74.8----
2024-04-18 08:00 amSSW 11.1 12.0----29.88+0.04 75.0 74.8----
2024-04-18 07:54 am S 9.9 13.0----29.88- 75.0 74.8----
2024-04-18 07:48 amSSW 11.1 13.0----29.88- 75.0 74.8----
2024-04-18 07:42 amSSW 11.1 14.0----29.87- 75.0 74.8----
2024-04-18 07:36 amSSW 13.0 15.0----29.87- 75.2 74.8----
2024-04-18 07:30 amSSW 14.0 15.9----29.86- 75.2 74.8----
2024-04-18 07:24 amSSW 14.0 15.9----29.86- 75.2 74.8----
2024-04-18 07:18 amSSW 13.0 14.0----29.86- 75.2 74.8----
2024-04-18 07:12 amSSW 12.0 14.0----29.86- 75.4 74.8----
2024-04-18 07:06 amSSW 13.0 15.0----29.86- 75.4 74.8----
2024-04-18 07:00 amSSW 13.0 15.9----29.85+0.01 75.4 74.8----
2024-04-18 06:54 amSSW 15.9 20.0----29.85- 75.6 74.8----
2024-04-18 06:48 amSSW 18.1 19.0----29.85- 75.9 74.8----
2024-04-18 06:42 amSSW 15.9 19.0----29.85- 75.6 74.8----
2024-04-18 06:36 amSSW 15.9 18.1----29.85- 75.4 74.8----
2024-04-18 06:30 am SW 17.1 18.1----29.86- 75.6 75.0----
2024-04-18 06:24 am SW 15.0 18.1----29.86- 75.6 75.0----
2024-04-18 06:18 am SW 15.9 18.1----29.85- 75.4 75.0----
2024-04-18 06:12 amSSW 17.1 19.0----29.86- 75.4 75.0----
2024-04-18 06:06 amSSW 14.0 17.1----29.85- 75.4 75.0----
2024-04-18 06:00 amSSW 14.0 15.9----29.86+0.01 75.4 75.0----
2024-04-18 05:54 am SW 13.0 15.9----29.86- 75.0 75.0----
2024-04-18 05:48 amSSW 15.9 19.0----29.85- 74.7 75.0----
2024-04-18 05:42 amSSW 18.1 21.0----29.84- 74.7 75.0----
2024-04-18 05:36 am S 18.1 20.0----29.84- 74.7 75.0----
2024-04-18 05:30 amSSW 12.0 15.9----29.85- 74.7 75.0----
2024-04-18 05:24 am S 4.1 5.1----29.85- 74.7 75.0----
2024-04-18 05:18 am S 4.1 12.0----29.85- 74.5 75.0----
2024-04-18 05:12 amSSW 11.1 15.9----29.85- 74.5 75.0----
2024-04-18 05:06 am S 15.0 17.1----29.84- 74.5 75.0----
2024-04-18 05:00 amSSW 15.0 17.1----29.84-0.01 74.5 75.0----
2024-04-18 04:54 am S 14.0 15.9----29.84- 74.5 75.0----
2024-04-18 04:48 amSSW 14.0 17.1----29.84- 74.5 75.0----
2024-04-18 04:42 amSSW 14.0 18.1----29.85- 74.5 75.0----
2024-04-18 04:36 amSSW 15.0 17.1----29.84- 74.5 75.0----
2024-04-18 04:30 amSSW 14.0 15.9----29.85- 74.7 75.0----
2024-04-18 04:24 amSSW 14.0 18.1----29.84- 74.5 75.0----
2024-04-18 04:18 amSSW 15.0 18.1----29.84- 74.7 75.0----
2024-04-18 04:12 amSSW 15.0 19.0----29.84- 74.7 75.0----
2024-04-18 04:06 amSSW 15.9 18.1----29.84- 74.7 75.0----
2024-04-18 04:00 amSSW 15.0 17.1----29.84+0.01 74.7 75.0----
2024-04-18 03:54 am S 15.9 18.1----29.84- 74.7 75.0----
2024-04-18 03:48 am S 15.9 20.0----29.83- 74.7 75.0----
2024-04-18 03:42 am S 18.1 20.0----29.83- 74.7 75.0----
2024-04-18 03:36 am S 18.1 20.0----29.83- 74.7 75.0----
2024-04-18 03:30 am S 17.1 21.0----29.83- 74.7 75.0----
2024-04-18 03:24 am S 17.1 19.0----29.83- 74.8 75.0----
2024-04-18 03:18 am S 14.0 17.1----29.84- 74.8 75.0----
2024-04-18 03:12 am S 13.0 15.9----29.84- 74.8 75.0----
2024-04-18 03:06 am S 15.0 17.1----29.84- 74.7 75.0----
2024-04-18 03:00 am S 15.9 19.0----29.84+0.01 74.8 75.0----
2024-04-18 02:54 am S 15.9 19.0----29.85- 74.8 75.0----
2024-04-18 02:48 am S 17.1 19.0----29.84- 74.8 75.0----
2024-04-18 02:42 am S 17.1 20.0----29.84- 74.8 75.0----
2024-04-18 02:36 am S 18.1 21.0----29.84- 74.8 75.0----
2024-04-18 02:30 am S 17.1 19.0----29.84- 74.8 75.0----
2024-04-18 02:24 am S 15.9 18.1----29.86- 74.8 75.0----
2024-04-18 02:18 am S 15.0 19.0----29.85- 74.8 75.0----
2024-04-18 02:12 amSSW 17.1 20.0----29.86- 75.0 75.0----
2024-04-18 02:06 amSSW 15.9 20.0----29.85- 74.8 75.0----
2024-04-18 02:00 am S 18.1 21.0----29.85-0.07 74.8 75.0----
2024-04-18 01:54 am S 19.0 22.0----29.84- 75.0 75.0----
2024-04-18 01:48 am S 18.1 21.0----29.85- 75.0 75.0----
2024-04-18 01:42 am S 18.1 22.0----29.85- 74.8 75.0----
2024-04-18 01:36 amSSW 19.0 22.0----29.85- 75.0 75.0----
2024-04-18 01:30 amSSW 18.1 21.0----29.86- 75.0 75.0----
2024-04-18 01:24 amSSW 19.0 22.0----29.85- 75.0 75.0----
2024-04-18 01:18 am S 18.1 22.0----29.84- 75.0 75.0----
2024-04-18 01:12 am S 18.1 22.9----29.84- 74.8 75.0----
2024-04-18 01:06 am S 19.0 22.0----29.83- 74.8 75.0----
2024-04-18 01:00 am S 22.0 25.1----29.83-0.07 74.8 75.0----
2024-04-18 12:54 am S 20.0 26.0----29.82- 74.7 75.0----
2024-04-18 12:48 am S 19.0 25.1----29.83- 74.7 75.0----
2024-04-18 12:42 am S 22.0 26.0----29.82- 74.5 75.0----
2024-04-18 12:36 am S 25.1 28.9----29.81- 74.3 75.0----
2024-04-18 12:30 am S 24.1 28.9----29.83- 74.3 75.0----
2024-04-18 12:24 am S 26.0 33.0----29.83- 74.5 74.8----
2024-04-18 12:18 am S 26.0 31.1----29.82- 74.7 74.8----
2024-04-18 12:12 am S 26.0 28.9----29.83- 74.5 74.8----
2024-04-18 12:06 am S 24.1 29.9----29.84- 74.3 75.0----
2024-04-18 12:00 am S 26.0 28.9----29.83-0.04 74.5 75.0----
2024-04-17 11:54 pm S 25.1 28.9----29.84- 74.3 75.0----
2024-04-17 11:48 pm S 25.1 28.9----29.85- 74.3 75.0----
2024-04-17 11:42 pm S 26.0 28.0----29.85- 74.3 75.0----
2024-04-17 11:36 pm S 25.1 27.0----29.86- 74.1 75.0----
2024-04-17 11:30 pm S 24.1 25.1----29.88- 74.1 75.0----
2024-04-17 11:24 pm S 21.0 22.9----29.89- 74.3 75.0----
2024-04-17 11:18 pm S 18.1 20.0----29.90- 74.1 75.0----
2024-04-17 11:12 pm S 15.9 18.1----29.91- 74.1 75.0----
2024-04-17 11:06 pm S 15.9 17.1----29.91- 74.3 75.0----
2024-04-17 11:00 pm S 13.0 15.0----29.92+0.06 74.3 75.0----
2024-04-17 10:54 pm S 9.9 12.0----29.93- 74.3 75.0----
2024-04-17 10:48 pmSSE 8.9 13.0----29.93- 74.1 75.0----
2024-04-17 10:42 pmSSE 9.9 14.0----29.93- 74.3 75.0----
2024-04-17 10:36 pmSSE 12.0 14.0----29.93- 74.1 75.0----
2024-04-17 10:30 pmSSE 12.0 15.0----29.92- 74.1 75.0----
2024-04-17 10:24 pmSSE 13.0 18.1----29.92- 74.1 75.0----
2024-04-17 10:18 pmSSE 17.1 20.0----29.90- 74.1 75.0----
2024-04-17 10:12 pmSSE 15.9 18.1----29.90- 74.1 75.0----
2024-04-17 10:06 pmSSE 15.0 17.1----29.91- 74.1 75.0----
2024-04-17 10:00 pmSSE 15.0 17.1----29.90+0.05 74.1 75.0----
2024-04-17 09:54 pmSSE 14.0 15.9----29.90- 74.1 75.0----